Location: Capvern
(43.1036°N, 0.3160°E)
Time: 04:46:01
(UTC+00:00)

H-2A R/B - Pass Details

Date: 16 October 2021
Orbit: 528 x 650 km, 98.3° (Epoch: 02 December)

Event Time Altitude Azimuth Distance (km) Brightness Sun altitude
Rises 18:49:22 0° 174° (S) 2,939 5.9 -18.1°
Reaches altitude 10° 18:51:37 10° 177° (S) 2,024 5.1 -18.5°
Maximum altitude 18:55:59 61° 258° (WSW) 714 3.1 -19.3°
Drops below altitude 10° 19:00:16 10° 339° (NNW) 1,979 5.5 -20.1°
Sets 19:02:27 0° 343° (NNW) 2,868 6.3 -20.5°
